カタログに戻る

STARLINK-37862

運用中通信SSO
NORAD 69551·PAYLOAD·🇺🇸 United States

打ち上げ Jun 15, 2026 から Vandenberg Space Force Base

Loading…

次のパス (今後24時間)

TLE

最新Source: CelesTrak SupGP

元期: Sep 14, 2026, 21:47 UTC

1 69551C 26135F   26257.90812500  .00036778  00000+0  11420-2 0  2577
2 69551  97.2836 285.6395 0001222  92.6786 167.0741 15.33411979    16

AllMySatでSTARLINK-37862をリアルタイム追跡

Download on the App Store